Location: Melbourne
(37.8170°S, 144.9670°E)
Time: 10:28:17
(UTC+11:00)

Daily predictions for brighter satellites

Satellite Brightness Start Highest point End
(mag) Time Altitude Azimuth Time Altitude Azimuth Time Altitude Azimuth
COSMOS 2406 3.3 21:05:19 10° SSW 21:11:04 89° SE 21:16:45 10° NNE
Cosmos 1733 Rocket 4.2 21:07:39 10° SSE 21:11:24 27° ESE 21:15:07 10° NE
ATLAS 3B CENTAUR R/B 4.5 20:50:10 10° WNW 21:13:13 55° N 21:21:15 10° ENE
Tiangong 2 2.7 21:12:19 10° WSW 21:15:13 33° S 21:18:06 10° ESE
Cosmos 1844 Rocket 3.0 21:10:02 10° NNW 21:15:38 76° WSW 21:21:17 10° SSE
Spot 2 Rocket 3.6 21:11:30 10° SSE 21:16:37 59° E 21:21:39 10° N
Cosmos 372 Rocket 4.0 21:11:51 10° N 21:16:55 60° ENE 21:22:06 10° SSE
Cosmos 1356 3.7 21:17:15 10° SSW 21:20:51 77° W 21:24:23 10° N
Cosmos 1869 Rocket 4.4 21:19:44 10° SSW 21:24:04 54° W 21:28:22 10° N
Cosmos 1862 Rocket 4.1 21:20:07 10° NNE 21:24:07 37° E 21:28:10 10° SSE
DELTA 2 R/B (1) 3.8 21:19:58 10° W 21:25:38 76° S 21:31:17 10° E
USA 186 2.0 21:23:41 10° SE 21:25:40 25° E 21:27:41 10° NNE
SAR-Lupe-4 3.5 21:23:07 10° SSE 21:26:47 72° ENE 21:30:23 10° N
Cosmos 1455 2.8 21:23:33 10° NNW 21:27:25 63° W 21:31:23 10° S
Cosmos 1408 3.6 21:24:25 10° SSE 21:27:48 30° ESE 21:30:50 12° NE
SAR-Lupe-1 4.1 21:24:28 10° SSE 21:28:05 63° ENE 21:31:39 10° N
Envisat 4.2 21:26:49 10° SE 21:30:48 22° E 21:34:29 11° NE
Cosmos 1825 3.0 21:29:20 10° SSE 21:32:54 35° ESE 21:35:56 13° NE
H-2A R/B 2.8 21:31:32 10° S 21:35:34 88° W 21:39:31 10° NNW
ERS-1 Rocket 4.5 21:35:34 10° SE 21:38:55 18° E 21:40:56 14° ENE
Cosmos 1939 Rocket 4.2 21:37:45 10° SE 21:41:11 24° E 21:43:25 16° NE
CZ-4B R/B 4.3 21:41:23 14° NE 21:45:30 39° ESE 21:50:27 10° S
COSMOS 2487 4.2 21:46:10 10° SSE 21:48:58 20° ESE 21:50:26 16° E
Cosmos 1869 4.0 21:45:47 10° NNW 21:49:46 57° W 21:53:47 10° S
CZ-4B DEB 2.7 21:46:37 10° SSE 21:49:52 72° E 21:53:04 10° N
CZ-2D R/B 3.7 21:49:30 10° S 21:53:27 68° WSW 21:57:22 10° NNW
ASTRO E2 3.7 21:51:47 10° NW 21:55:18 29° N 21:56:50 22° NE
USA 81 4.5 21:52:51 14° NNE 21:57:00 43° E 22:02:02 10° SSE
Cosmos 1315 Rocket 3.3 22:01:44 10° S 22:05:45 45° ESE 22:07:38 27° NE
Cosmos 2278 Rocket 2.6 22:00:20 10° NNW 22:05:59 67° WSW 22:11:42 10° SSE
Cosmos 1417 Rocket 4.4 22:02:52 10° N 22:08:59 77° E 22:15:14 10° S
Cosmos 1745 Rocket 4.4 22:03:37 10° S 22:09:34 45° ESE 22:13:08 23° NE
Cosmos 158 Rocket 4.4 22:05:06 10° SSW 22:10:27 66° WNW 22:14:52 15° N
Cosmos 1933 3.4 22:07:04 10° N 22:11:13 84° W 22:15:25 10° S
Cosmos 1400 Rocket 3.0 22:10:22 10° SSW 22:14:28 72° W 22:17:08 20° N
BREEZE-M DEB (TANK) 4.5 21:58:41 10° SW 22:16:14 77° NW 22:19:01 27° NE
Resurs 01 Rocket 3.9 22:13:49 10° SSW 22:17:35 27° WSW 22:21:19 10° NW
Cosmos 494 Rocket 4.1 22:17:14 10° S 22:22:23 61° ESE 22:24:46 31° NE
Cosmos 1242 Rocket 4.2 22:21:01 10° NW 22:24:19 34° WSW 22:27:44 10° S
PSLV R/B 3.3 22:22:38 10° WSW 22:25:52 58° NNW 22:26:13 53° N
Meteor 1-26 Rocket 4.1 22:23:28 18° N 22:27:35 70° E 22:33:10 10° SSE
YAOGAN 6 3.0 22:25:21 10° SSE 22:29:00 43° E 22:29:12 42° ENE
NOSS 3-4 (A) 3.6 22:21:52 10° SSW 22:29:00 90° WNW 22:32:44 29° NNE
NOSS 3-4 (C) 3.6 22:21:57 10° SSW 22:29:06 89° SE 22:32:49 29° NNE
Cosmos 2221 Rocket 3.6 22:28:21 32° NNE 22:30:21 64° E 22:34:53 10° SSE
Cosmos 1908 Rocket 3.5 22:25:57 10° S 22:30:31 89° W 22:32:34 32° N
Cosmos 1782 Rocket 3.8 22:26:35 10° S 22:30:57 51° E 22:32:05 40° NE
OAO 3 Copernicus 4.3 22:26:24 10° W 22:31:26 65° N 22:33:32 34° ENE
Cosmos 2082 Rocket 2.3 22:29:43 10° SSW 22:35:21 62° ESE 22:37:37 35° NE
Timation 2 Rocket 4.0 22:29:45 10° SSW 22:35:47 63° ESE 22:38:31 34° NE
SJ-11-01 4.4 22:31:02 10° S 22:35:48 76° WSW 22:39:41 15° NNW
Cosmos 2369 Rocket 4.2 22:39:17 11° ESE 22:39:17 11° ESE 22:39:53 10° ESE
Cosmos 1833 Rocket 2.9 22:34:46 10° SSW 22:40:25 60° ESE 22:42:29 37° NE
Lacrosse 4 Rocket 3.9 22:43:53 10° ESE 22:43:53 10° ESE 22:43:54 10° ESE
S3M 4.1 22:35:47 11° N 22:41:43 76° W 22:47:56 10° S
Cosmos 2297 4.1 22:41:08 10° NNW 22:46:52 66° WSW 22:52:37 10° SSE
Cosmos 2251 Rocket 3.7 22:42:51 10° SSW 22:48:16 72° WNW 22:50:32 35° N
Okean 2 Rocket 3.2 22:43:49 10° S 22:48:17 61° E 22:49:00 53° ENE
Meteor 2-11 Rocket 4.4 22:47:38 33° NNE 22:50:30 68° E 22:56:41 10° SSE
Tiangong 2 2.2 22:49:11 10° WSW 22:52:09 38° S 22:52:16 38° SSE
MetOp-B 4.2 22:50:01 10° SSE 22:55:20 54° E 22:56:22 47° NE
ARGOS 3.6 22:53:29 10° SSE 22:58:36 41° E 22:58:47 41° ENE
Cosmos 2292 Rocket 4.5 22:51:54 10° S 22:58:38 54° ESE 22:59:51 45° ENE
Cosmos 2151 Rocket 4.4 22:54:48 10° S 22:58:48 35° ESE 22:58:48 35° ESE
Cosmos 1782 3.6 23:00:20 40° ESE 23:00:20 40° ESE 23:03:31 10° SSE
Envisat 4.3 23:05:08 10° S 23:09:54 39° WSW 23:14:37 10° NW
Okean 1-7 3.6 23:09:15 38° NW 23:10:32 53° W 23:14:48 10° S
DELTA 2 R/B (1) 3.6 23:06:34 10° WSW 23:12:07 61° NNW 23:12:42 57° N
USA 215 4.3 23:07:41 10° ESE 23:11:16 26° E 23:11:16 26° E
Meteor 1-25 Rocket 4.2 23:08:09 10° S 23:14:02 87° ESE 23:15:26 55° NNE
H-2A R/B 3.1 23:10:02 10° SSE 23:13:38 30° ESE 23:13:38 30° ESE
ERS-1 Rocket 3.8 23:13:02 10° S 23:17:56 49° WSW 23:20:56 22° NW
ATLAS CENTAUR R/B 2.6 23:14:12 10° SSW 23:18:35 37° SE 23:18:56 37° ESE
SPOT 5 2.8 23:17:30 10° SSE 23:22:40 85° WSW 23:23:21 66° NNW
Cosmos 1606 3.7 23:28:24 43° SSE 23:28:24 43° SSE 23:31:13 10° S
Cosmos 1674 Rocket 4.4 23:29:19 43° SE 23:29:19 43° SE 23:32:43 10° SSE
NOSS 2-2 (C) 4.4 23:21:30 10° SSW 23:28:18 60° SE 23:29:13 53° E
H-2A R/B 2.8 23:27:51 10° SSE 23:30:53 44° SE 23:30:53 44° SE
BREEZE-M DEB (TANK) 3.8 23:29:47 10° WSW 23:32:01 26° WSW 23:32:01 26° WSW
SL-08 RB Rocket 3.8 23:31:47 10° SSE 23:36:08 74° SSE 23:36:08 74° SSE
Meteor 1-11 Rocket 4.1 23:31:25 10° S 23:37:00 48° ESE 23:37:05 48° E
Cosmos 1709 Rocket 4.1 23:34:00 10° S 23:40:19 75° W 23:41:41 56° NNW
Cosmos 2056 Rocket 3.8 23:42:16 56° ESE 23:42:16 56° ESE 23:46:59 10° SSE
Meteor 1-10 Rocket 4.4 23:40:20 54° NW 23:41:38 73° W 23:47:37 10° S
Meteor 2-6 Rocket 4.2 23:44:21 66° NW 23:45:06 77° W 23:50:55 10° S
Cosmos 1624 Rocket 4.1 23:47:28 66° SE 23:47:28 66° SE 23:52:06 10° SSE
RESURS DK-1 3.3 23:44:20 10° SSW 23:47:26 48° SSW 23:47:26 48° SSW
Lacrosse 5 rocket 4.0 23:54:10 14° SE 23:54:10 14° SE 23:54:54 10° SE
SPOT 1/Viking Rocket 3.6 23:45:37 10° S 23:50:55 75° WSW 23:51:13 72° WNW
BREEZE-M DEB (TANK) 3.6 23:42:35 10° WSW 23:52:43 71° SSE 23:52:57 69° SE
